sat.trackr.live / text

‹ back to catalog

STARLINK-31272

NORAD 59162 · 2024-044L

PAYLOAD ACTIVE UNKNOWN

§ Identity

Operator
Country
US
Launch date
2024-03-04
Launch site
AFETR
Launch vehicle
Mass (kg)
RCS (m²)

Purposes: comms

External: N2YO · Heavens-Above · Gunter

§ Orbital elements

Epoch: 2026-09-20T21:38:22.383744Z

Period
94.27 min
Inclination
43.0035°
Eccentricity
0.0001075
Mean motion
15.27583981 rev/d
Perigee alt
482.3 km
Apogee alt
483.8 km
Semi-major
6,861.2 km
B*
6.0768e-5
RAAN
84.3208°
Arg perigee
256.9917°
Mean anomaly
103.0815°
Rev number
14,342

§ Raw data

STARLINK-312721 59162U 24044L   26263.90164796  .00001411  00000+0  60768-4 0  99952 59162  43.0035  84.3208 0001075 256.9917 103.0815 15.27583981143428

JSON: /api/v1/satellites/59162 · /tle

For live sub-satellite position, see the globe view (requires WebGL).

§ Visibility from observer

Set your observer location to see the next 7 days of passes ≥ 10°. The values pass through the URL so the page stays shareable.

No JS? Fill the form by hand. The geolocation button needs JavaScript.